Regional Weather Roundup
Issued by NWS

Home | Current Version | Previous Version | Text Only | Print | Product List | Glossary Off
Versions: 1 2 3 4 5 6 7 8 9 10 11 12 13 14 15 16 17 18 19 20 21 22 23 24 25 26 27 28 29 30 31 32 33 34 35 36 37 38 39 40 41 42 43 44 45 46 47 48 49 50

000
ASUS43 KFSD 282010
RWRSD

WEATHER ROUNDUP FOR SOUTH DAKOTA
NATIONAL WEATHER SERVICE SIOUX FALLS SD
300 PM CDT THU MAY 28 2015

NOTE: "FAIR" INDICATES FEW OR NO CLOUDS BELOW 12,000 FEET WITH NO
SIGNIFICANT WEATHER AND/OR OBSTRUCTIONS TO VISIBILITY.


SDZ001>005-009-010-012>017-282100-
NORTHWEST AND NORTH CENTRAL SOUTH DAKOTA

CITY           SKY/WX    TMP DP  RH WIND       PRES   REMARKS
BUFFALO          N/A     71  50  47 NW17      29.85F
FAITH            N/A     74  54  49 N7        29.88F
MOBRIDGE       MOSUNNY   77  59  53 VRB3      29.83F
$$

SDZ012>016-024>037-041>051-057-063-072>074-282100-
SOUTHWEST AND SOUTH CENTRAL SOUTH DAKOTA

CITY           SKY/WX    TMP DP  RH WIND       PRES   REMARKS
RAPID CTY ARPT PTSUNNY   72  54  53 N9        29.92F
PIERRE         PTSUNNY   80  61  52 W8        29.83F
CUSTER         CLOUDY    56  46  69 N8        30.02F
ELLSWORTH AFB  PTSUNNY   68  56  64 N5        29.92
PHILIP         MOSUNNY   77  59  53 W5        29.87F
PINE RIDGE     MOSUNNY   75  48  38 NW8G17    29.91F
SPEARFISH      HVY RAIN  59  55  88 NW7       29.99R
WINNER         FAIR      82  57  42 S14G22    29.87F
$$

SDZ004>011-016>023-039-040-282100-
NORTHEAST SOUTH DAKOTA

CITY           SKY/WX    TMP DP  RH WIND       PRES   REMARKS
ABERDEEN       MOSUNNY   84  59  42 S20G29    29.82F
WATERTOWN      MOSUNNY   79  60  52 S24G31    29.90F
BROOKINGS      MOSUNNY   79  57  47 S21G31    29.93F
SISSETON         N/A     83  59  44 SW23G35   29.84F
$$

SDZ017-020-022-023-036>040-048>070-282100-
SOUTHEAST SOUTH DAKOTA

CITY           SKY/WX    TMP DP  RH WIND       PRES   REMARKS
SIOUX FALLS    MOSUNNY   81  58  45 S16G24    29.92F
HURON            N/A    N/A N/A N/A MISG      29.85F
CHAMBERLAIN    PTSUNNY   82  60  46 S12       29.86F
MITCHELL       MOSUNNY   84  57  39 S15G31    29.87F
YANKTON        FAIR      82  57  42 S23       29.90F
$$

ABBREVIATIONS USED IN REMARKS
   TC - TEMPERATURE IN CELSIUS
  WCI - WIND CHILL INDEX
   HX - HEAT INDEX
  VSB - VISIBILITY




USA.gov is the U.S. government's official web portal to all federal, state and local government web resources and services.